Location: Unspecified
(44.0704°N, 88.6889°W)
Time: 05:04:45
(UTC+02:00)

ISS - Visible Passes

Search period start: 24 September 2017 00:00
Search period end: 04 October 2017 00:00
Orbit: 401 x 407 km, 51.6° (Epoch: 24 September)

Date Brightness Start Highest point End Pass type
(mag) Time Alt. Az. Time Alt. Az. Time Alt. Az.
25 Sep -1.9 02:45:24 10° SSE 02:47:03 14° SE 02:47:03 14° SE visible
26 Sep -3.3 03:27:45 10° SW 03:30:18 45° S 03:30:18 45° S visible
27 Sep -2.9 02:35:48 10° SSW 02:38:43 30° SE 02:40:37 17° E visible
27 Sep -1.3 04:11:59 10° W 04:13:17 21° W 04:13:17 21° W visible
28 Sep -3.6 03:19:27 10° WSW 03:22:43 68° NNW 03:23:25 49° NE visible
29 Sep -3.9 02:27:07 10° SW 02:30:21 69° SE 02:33:23 12° ENE visible
29 Sep -1.5 04:04:09 10° WNW 04:06:03 24° NW 04:06:03 24° NW visible
30 Sep -2.6 03:11:27 10° W 03:14:32 38° NNW 03:15:54 25° NNE visible
01 Oct -3.3 02:18:50 10° WSW 02:22:04 57° NNW 02:25:19 10° NE visible
01 Oct -1.4 03:56:21 10° WNW 03:58:17 21° NNW 03:58:17 21° NNW visible
02 Oct -2.0 03:03:35 10° WNW 03:06:25 26° NNW 03:07:57 18° NNE visible
03 Oct -2.4 02:10:49 10° W 02:13:51 34° NNW 02:16:53 10° NE visible
03 Oct -1.4 03:48:22 10° NW 03:50:12 19° NNW 03:50:12 19° NNW visible
